User: anonymous   Login
Location: Aulnoy
(48.8410°N, 3.0967°E)
Time: 00:12:13
(UTC+00:00)
Language:

Cosmos 1340 - Orbit

View from above orbital plane
View from above orbital plane
View from above satellite
View from above satellite

Ground track
Ground track

The orbit data is extracted from the following two-line orbital elements,

1 13067U 82013A   23154.36053389  .00010895  00000-0  37414-3 0  9998
2 13067  81.1816 107.2124 0005026  56.0500 304.1213 15.30000335258559
Epoch (UTC): 03 June 2023 08:39:10
Eccentricity: 0.0005026
inclination: 81.1816°
perigee height: 472 km
apogee height: 479 km
right ascension of ascending node: 107.2124°
argument of perigee: 56.0500°
revolutions per day: 15.30000335
mean anomaly at epoch: 304.1213°
orbit number at epoch: 25855

The dashed part of the orbit path shows where the satellite is in the earth's shadow,  

DLR